Regional Weather Roundup
Issued by NWS

Home | Current Version | Previous Version | Graphics & Text | Print | Product List | Glossary On
Versions: 1 2 3 4 5 6 7 8 9 10 11 12 13 14 15 16 17 18 19 20 21 22 23 24 25 26 27 28 29 30 31 32 33 34 35 36 37 38 39 40 41 42 43 44 45 46 47 48 49 50
000
ASUS43 KDTX 222001
RWRMI
MICHIGAN HOURLY REGIONAL WEATHER ROUNDUP
NATIONAL WEATHER SERVICE DETROIT/PONTIAC MI
300 PM EST SAT NOV 22 2014

NOTE: "FAIR" INDICATES FEW OR NO CLOUDS BELOW 12,000 FEET WITH NO
SIGNIFICANT WEATHER AND/OR OBSTRUCTION TO VISIBILITY.

MIZ047>049-052>055-059>063-066>070-074>076-081>083-222100-
SOUTHEAST LOWER MICHIGAN

CITY           SKY/WX    TMP DP  RH WIND       PRES   REMARKS
ADRIAN         CLOUDY    42  39  89 SW13      29.98F
ALMA           FOG       37  37 100 SW8       29.89S VSB 1   WCI  31
ANN ARBOR      CLOUDY    41  37  86 SW9       29.96F FOG
BAD AXE        CLOUDY    40  38  95 SW10G16   29.89S FOG     WCI  33
DETROIT CITY   CLOUDY    45  38  76 SW16      29.97F
DETROIT        CLOUDY    43  39  86 S14       29.98F
FLINT          CLOUDY    43  38  82 SW12      29.92F HAZE
GROSSE ILE     LGT RAIN  45  39  81 SW12      29.97F
HILLSDALE      CLOUDY    44  43  99 SW9       29.95F FOG
HOWELL         FOG       39  39  97 S9        29.93F VSB 1   WCI  33

CITY           SKY/WX    TMP DP  RH WIND       PRES   REMARKS
JACKSON        CLOUDY    43  41  93 SW14      29.94F FOG
LAMBERTVILLE   CLOUDY    46  41  81 SW9G16    29.99F
LANSING        CLOUDY    40  38  93 SW12      29.92F FOG     WCI  33
LAPEER         CLOUDY    40  38  91 SW9       29.92F FOG     WCI  34
MASON          CLOUDY    42  40  93 SW6       29.92F FOG
MONROE         CLOUDY    46  41  81 SW12G18   29.96F
MT. CLEMENS    CLOUDY    42  41  96 SW14      29.94F
PONTIAC        CLOUDY    39  36  89 SW12G21   29.93F FOG     WCI  32
PORT HOPE        N/A     40  36  86 SW14G23   29.85F WCI  32
PORT HURON     CLOUDY    39  36  87 SW9       29.95F FOG     WCI  33
TRI CITIES     CLOUDY    40  37  89 SW18      29.89F FOG     WCI  31
SAGINAW HB     CLOUDY    39  39 100 S13       29.88F FOG     WCI  32
$$
MIZ043>046-050>051-056>058-064>065-071>073-077>080-222100-
SOUTHWEST LOWER MICHIGAN

CITY           SKY/WX    TMP DP  RH WIND       PRES   REMARKS
BATTLE CREEK   CLOUDY    42  38  85 SW15      29.93F FOG
BENTON HARBOR  LGT RAIN  43  41  93 S9        29.92F FOG
BIG RAPIDS     FOG       38  38 100 SW7       29.83F VSB<1/4 WCI  32
COLDWATER      CLOUDY    46  43  91 SW16G23   29.94F
FREMONT        CLOUDY    38  38  98 SW10      29.85F FOG     WCI  31
HOLLAND        CLOUDY    44  40  85 SW14      29.89F
GRAND RAPIDS   CLOUDY    38  37  97 SW10      29.89F FOG     WCI  31
IONIA          CLOUDY    38  38  98 SW9       29.89F FOG     WCI  32
KALAMAZOO      CLOUDY    41  38  89 S12       29.93F FOG
LUDINGTON      CLOUDY    42  40  93 SW16G22   29.83S FOG
MARSHALL       CLOUDY    41  40  97 SW9G17    29.93F FOG
MOUNT PLEASANT CLOUDY    38  37  96 S10G16    29.86S FOG     WCI  30
MUSKEGON       CLOUDY    43  39  86 SW15      29.87F FOG
SOUTH HAVEN    CLOUDY    44  42  92 SW9       29.91S FOG
$$
MIZ016>042-222100-
NORTHERN LOWER MICHIGAN

CITY           SKY/WX    TMP DP  RH WIND       PRES   REMARKS
ALPENA         CLOUDY    39  36  89 SW9       29.78S WCI  33
BEAVER ISLAND  CLOUDY    40  37  90 SW16G26   29.75R FOG     WCI  31
BELLAIRE       CLOUDY    39  36  88 SW6       29.79S
CADILLAC       SNOW      36  36  99 SW13G18   29.79F VSB<1/4 WCI  27
CHARLEVOIX     CLOUDY    38  38  97 S7        29.79S FOG     WCI  33
FRANKFORT      CLOUDY    40  39  96 SW13G21   29.79F FOG     WCI  33
GAYLORD        CLOUDY    36  34  92 SW17G24   29.76S FOG     WCI  26
GRAYLING       CLOUDY    38  37  98 SW7       29.79S FOG     WCI  33
HARBOR SPRINGS CLOUDY    38  37  96 SW15G21   29.75F FOG     WCI  29
HOUGHTON LAKE  FOG       36  36 100 SW9       29.81F VSB 1/2 WCI  29
MANISTEE       CLOUDY    41  37  87 SW5       29.82F
OSCODA         CLOUDY    36  36  99 SW20G28   29.82R FOG     WCI  25
PELLSTON       CLOUDY    39  37  92 SW7G17    29.75F FOG     WCI  34
ROGERS CITY    CLOUDY    40  37  88 SW10      29.77R WCI  33
TRAVERSE CITY  CLOUDY    40  37  89 VRB6      29.78S FOG
$$
MIZ007>008-015-222100-
EASTERN UPPER MICHIGAN

CITY           SKY/WX    TMP DP  RH WIND       PRES   REMARKS
KINROSS        CLOUDY    37  36  93 W12       29.73S WCI  30
MACKINAC ISLAN CLOUDY    38  37  94 W8G23     29.73F FOG     WCI  33
NEWBERRY       CLOUDY    35  31  87 SW12      29.72R FOG     WCI  26
S. S. MARIE    CLOUDY    36  31  82 SW9       29.72S WCI  29
MUNISING         N/A     40  29  64 S9        29.69S WCI  34
$$
MIZ004>006-011>014-085-222100-
CENTRAL UPPER MICHIGAN

CITY           SKY/WX    TMP DP  RH WIND       PRES   REMARKS
MANISTIQUE     CLOUDY    36  32  87 SW6       29.73S WCI  31
ESCANABA       CLOUDY    37  28  70 SW10      29.72F WCI  30
MENOMINEE      CLOUDY    37  34  87 W6        29.75S WCI  33
SAWYER-GWINN   MOSUNNY   36  30  80 SW12      29.68R WCI  27
$$
MIZ001>003-009>011-084-222100-
WESTERN UPPER MICHIGAN

CITY           SKY/WX    TMP DP  RH WIND       PRES   REMARKS
IRON MOUNTAIN  MOSUNNY   38  30  73 SW7       29.70R WCI  33
HOUGHTON       CLOUDY    37  29  72 W14       29.64S WCI  28
COPPER HARBOR    N/A     39  32  76 W7        29.64S WCI  34
IRONWOOD       CLOUDY    37  30  75 SW9G16    29.64S WCI  31
$$

ABBREVIATIONS USED IN REMARKS
   TC - TEMPERATURE IN CELSIUS
  WCI - WIND CHILL INDEX
   HX - HEAT INDEX
  VSB - VISIBILITY




USA.gov is the U.S. government's official web portal to all federal, state and local government web resources and services.